WET,Max TemperatureF,Mean TemperatureF,Min TemperatureF,Max Dew PointF,MeanDew PointF,Min DewpointF,Max Humidity, Mean Humidity, Min Humidity, Max Sea Level PressureIn, Mean Sea Level PressureIn, Min Sea Level PressureIn, Max VisibilityMiles, Mean VisibilityMiles, Min VisibilityMiles, Max Wind SpeedMPH, Mean Wind SpeedMPH, Max Gust SpeedMPH,PrecipitationIn, CloudCover, Events, WindDirDegrees
2012-10-1,81,68,55,61,56,54,94,71,32,30.18,30.14,30.03,6,6,6,8,6,,0.00,1,,54
2012-10-2,83,68,54,59,55,50,94,65,22,30.18,30.14,30.02,6,6,6,8,6,,0.00,2,,204
2012-10-3,88,72,55,56,50,41,82,50,11,30.15,30.05,29.88,6,6,6,12,6,,0.00,3,,136
2012-10-4,88,72,55,61,50,44,78,43,15,30.09,29.97,29.82,6,6,6,10,6,,0.00,,,293
2012-10-5,78,71,64,66,60,57,94,68,40,30.18,30.10,30.00,6,4,2,9,4,,0.00,6,,8
2012-10-6,86,72,59,63,57,52,88,62,25,30.68,30.16,30.01,6,6,5,8,4,,0.00,1,,308
2012-10-7,66,62,58,57,54,51,77,71,64,30.18,30.16,30.12,6,6,6,7,5,,0.00,,,170
2012-10-8,66,62,59,49,47,46,59,51,43,30.18,30.15,30.12,6,6,6,5,5,,0.00,,,226
2012-10-9,84,70,60,52,49,48,63,48,22,30.12,30.10,30.03,6,6,6,9,6,,0.00,,,188
2012-10-10,73,68,64,55,51,50,60,55,39,30.06,30.06,30.05,6,6,6,9,8,,0.00,,,191
2012-10-11,81,69,57,63,58,52,94,70,40,30.12,30.08,29.98,6,4,0,10,5,,0.00,4,Fog,313
2012-10-12,74,68,62,61,57,53,88,69,41,30.15,30.09,29.99,6,6,5,12,6,,0.00,5,,320
2012-10-13,74,66,57,54,51,45,88,61,24,30.12,30.07,29.95,6,6,6,9,6,,0.00,3,,305
2012-10-14,72,62,51,54,51,48,88,63,40,30.04,29.98,29.87,6,6,6,10,7,,0.00,4,,316
2012-10-15,77,65,51,61,52,43,82,64,48,30.09,30.00,29.88,6,6,6,18,9,,0.00,5,Rain,281
2012-10-16,80,63,46,49,43,40,81,48,15,30.09,29.98,29.86,6,6,6,10,6,,0.00,,,99
2012-10-17,86,69,52,46,41,37,62,37,10,29.98,29.90,29.75,6,6,6,9,5,,0.00,6,,236
2012-10-18,65,60,54,50,47,43,72,58,34,29.83,29.79,29.75,6,6,6,9,5,,0.00,4,,246
2012-10-19,61,57,53,54,52,50,94,85,69,29.92,29.89,29.84,6,6,5,7,5,,0.08,5,Rain,25
2012-10-20,64,58,51,52,49,43,94,79,41,30.04,29.95,29.86,6,6,5,21,7,,0.31,6,Rain,274
2012-10-21,68,57,46,52,46,39,94,66,28,30.09,30.06,30.01,6,6,6,9,6,,0.00,3,,200
2012-10-22,83,65,47,54,49,44,88,60,28,30.09,30.06,29.94,6,6,6,10,6,,0.00,3,,122
2012-10-23,86,72,59,50,47,41,63,41,16,30.12,30.05,29.91,6,6,6,12,7,,0.00,2,,103
2012-10-24,83,72,60,57,52,48,82,51,26,30.04,29.98,29.85,6,6,6,14,8,,0.00,5,,317
2012-10-25,78,68,59,59,55,48,94,70,29,29.98,29.88,29.75,6,6,5,24,8,,0.02,6,Rain,252
2012-10-26,72,66,59,61,54,48,94,70,36,29.86,29.83,29.71,6,6,6,30,12,38,0.24,6,Rain,267
2012-10-27,69,63,57,57,56,54,94,83,53,29.95,29.88,29.81,6,5,2,17,13,,0.35,5,Rain,274
2012-10-28,66,60,53,56,54,50,94,80,58,30.04,30.00,29.93,6,6,5,12,7,,0.00,5,,297
2012-10-29,64,57,50,57,53,48,94,85,68,30.02,29.93,29.86,6,5,4,9,4,,0.24,6,Rain,172
2012-10-30,67,62,56,63,59,55,94,87,74,29.80,29.64,29.45,5,4,4,122,13,40,0.24,7,Rain,295
2012-10-31,66,62,57,63,58,55,94,91,77,29.77,29.68,29.49,5,4,2,17,9,,0.16,6,Rain,313